Iron Mountain, MI

3:47 AM CDT on October 17, 2017 (GMT -0500)
Ford

Weather History for KIMT - November, 2010

Change the Weather History Date:

Friday, November 26, 2010

  Actual Average Record
Temperature  
Mean Temperature 16 °F -  
Max Temperature 23 °F 35 °F 49 °F (1960)
Min Temperature 10 °F 19 °F -5 °F (1991)
Degree Days  
Heating Degree Days 50    
Moisture  
Dew Point 12 °F    
Average Humidity 75    
Maximum Humidity 80    
Minimum Humidity 71    
Precipitation  
Precipitation 0.00 in - - ()
Sea Level Pressure  
Sea Level Pressure 29.59 in    
Wind  
Wind Speed 13 mph (West)    
Max Wind Speed 17 mph    
Max Gust Speed 28 mph    
Visibility 9 miles    
Events Snow    
Averages and records for this station are not official NWS values.
T = Trace of Precipitation, MM = Missing Value Source: NWS Daily Summary

Daily Weather History Graph

Daily Weather History Graph

Search for Another Location

Airport or City:

Trip Planner

Search our weather history database for the weather conditions in past years. The results will help you decide how hot, cold, wet, or windy it might be!

Date:

Astronomy

Nov. 26, 2010 Rise Set
Actual Time 7:07 AM CST 4:12 PM CST
Civil Twilight 6:33 AM CST 4:45 PM CST
Nautical Twilight 5:56 AM CST 5:22 PM CST
Astronomical Twilight 5:21 AM CST 5:57 PM CST
Moon 9:26 PM CST (11/26) 11:09 AM CST (11/26)
Length of Visible Light 10h 11m
Length of Day
9h 04m
Waning Gibbous, 73% of the Moon is Illuminated
Nov 26
Waning Gibbous
Nov 28
Last Quarter
Dec 5
New
Dec 13
First Quarter
Dec 21
Full

Hourly Weather History & Observations

Time (CST) Temp. Windchill Dew Point Humidity Pressure Visibility Wind Dir Wind Speed Gust Speed Precip Events Conditions
2:37 AM 10.4 °F -4.1 °F 3.2 °F 73% 29.52 in 10.0 mi West 11.5 mph 21.9 mph N/A   Overcast
2:54 AM 10.9 °F -3.4 °F 3.9 °F 73% 29.58 in 10.0 mi WSW 11.5 mph 26.5 mph N/A   Overcast
3:54 AM 12.0 °F -2.7 °F 5.0 °F 73% 29.57 in 10.0 mi WSW 12.7 mph - N/A   Overcast
4:54 AM 12.0 °F -3.4 °F 6.1 °F 77% 29.57 in 10.0 mi WSW 13.8 mph 23.0 mph N/A   Overcast
5:54 AM 12.9 °F -1.6 °F 7.0 °F 77% 29.56 in 10.0 mi WSW 12.7 mph 21.9 mph 0.00 in   Overcast
6:54 AM 14.0 °F -1.4 °F 8.1 °F 77% 29.57 in 9.0 mi West 15.0 mph 23.0 mph 0.00 in Snow Light Snow
7:51 AM 15.8 °F 4.2 °F 8.6 °F 73% 29.49 in 9.0 mi West 9.2 mph 23.0 mph 0.00 in Snow Light Snow
7:54 AM 15.1 °F 1.1 °F 9.0 °F 77% 29.56 in 9.0 mi West 12.7 mph 20.7 mph 0.00 in   Scattered Clouds
8:54 AM 17.1 °F 3.0 °F 10.9 °F 77% 29.56 in 10.0 mi WSW 13.8 mph 23.0 mph N/A   Overcast
9:54 AM 19.0 °F 4.5 °F 12.0 °F 74% 29.56 in 9.0 mi West 16.1 mph 27.6 mph 0.00 in Snow Light Snow
10:54 AM 19.9 °F 8.6 °F 12.0 °F 71% 29.57 in 9.0 mi West 10.4 mph 24.2 mph 0.00 in Snow Light Snow
11:54 AM 19.9 °F 6.7 °F 12.0 °F 71% 29.58 in 9.0 mi West 13.8 mph 21.9 mph 0.00 in Snow Light Snow
12:54 PM 19.9 °F 6.7 °F 12.9 °F 74% 29.57 in 9.0 mi WSW 13.8 mph 21.9 mph 0.00 in Snow Light Snow
1:54 PM 21.0 °F 9.3 °F 14.0 °F 74% 29.58 in 9.0 mi West 11.5 mph 19.6 mph 0.00 in Snow Light Snow
2:54 PM 21.0 °F 9.3 °F 14.0 °F 74% 29.59 in 10.0 mi West 11.5 mph 18.4 mph 0.00 in   Overcast
3:54 PM 21.0 °F 8.6 °F 15.1 °F 78% 29.60 in 8.0 mi West 12.7 mph 20.7 mph 0.00 in Snow Light Snow
4:54 PM 21.0 °F 7.6 °F 15.1 °F 78% 29.62 in 9.0 mi WNW 15.0 mph 20.7 mph 0.00 in Snow Light Snow
5:38 PM 21.2 °F 8.3 °F 15.8 °F 80% 29.56 in 6.0 mi West 13.8 mph 20.7 mph 0.00 in Snow Light Snow
5:54 PM 21.0 °F 8.6 °F 14.0 °F 74% 29.63 in 9.0 mi West 12.7 mph 25.3 mph 0.00 in   Overcast
6:54 PM 21.0 °F 8.1 °F 14.0 °F 74% 29.63 in 10.0 mi West 13.8 mph 25.3 mph 0.00 in Snow Light Snow
7:54 PM 21.0 °F 7.6 °F 14.0 °F 74% 29.64 in 10.0 mi WNW 15.0 mph 24.2 mph 0.00 in   Mostly Cloudy
8:54 PM 21.0 °F 6.6 °F 14.0 °F 74% 29.64 in 10.0 mi WNW 17.3 mph 23.0 mph N/A   Partly Cloudy
9:54 PM 21.9 °F 7.8 °F 15.1 °F 75% 29.66 in 10.0 mi WNW 17.3 mph 23.0 mph N/A   Mostly Cloudy
10:54 PM 21.9 °F 9.8 °F 15.1 °F 75% 29.68 in 10.0 mi WNW 12.7 mph 24.2 mph N/A   Overcast
11:08 PM 21.2 °F 9.5 °F 15.8 °F 80% 29.62 in 10.0 mi WNW 11.5 mph 26.5 mph N/A   Overcast
11:54 PM 23.0 °F 9.6 °F 16.0 °F 74% 29.70 in 10.0 mi WNW 16.1 mph 25.3 mph N/A   Overcast